This demonstration page uses our WeatherBlox Daily Observations layout. Learn more.

Left ArrowRight Arrow

38.80484, -77.04692

Hourly Observations for May 28, 2015

Temp ( °F °C ) Dew Point ( °F °C ) Humidity (%) Winds ( mph kmh ) Pressure ( in mb ) Visibility ( mi km ) Precip ( " mm )
12:52 am 00:52 Clear 77 25 70 21.1 79 79 S 7 11 30.14 1021 10 16 0.00 0.00
1:52 am 01:52 Partly Cloudy 76 24.4 70 21.1 82 82 S 9 15 30.14 1021 10 16 0.00 0.00
2:52 am 02:52 Partly Cloudy 75 23.9 68 20 79 79 S 7 11 30.12 1020 10 16 0.00 0.00
3:52 am 03:52 Partly Cloudy 75 23.9 69 20.6 82 82 S 8 13 30.12 1020 10 16 0.00 0.00
4:52 am 04:52 Mostly Cloudy 74 23.3 67 19.4 79 79 S 8 13 30.12 1020 10 16 0.00 0.00
5:52 am 05:52 Mostly Cloudy 74 23.3 67 19.4 79 79 SSW 9 15 30.15 1021 10 16 0.00 0.00
6:52 am 06:52 Cloudy 74 23.3 68 20 82 82 S 9 15 30.17 1022 10 16 0.00 0.00
6:56 am 06:56 Cloudy 73 23 68 20 83 83 SSW 9 15 30.18 1022 10 16 0.00 0.00
7:52 am 07:52 Cloudy 75 23.9 68 20 79 79 SSW 8 13 30.18 1022 10 16 0.00 0.00
8:52 am 08:52 Cloudy 77 25 68 20 74 74 SSW 6 9 30.20 1023 10 16 0.00 0.00
9:52 am 09:52 Cloudy 79 26.1 70 21.1 74 74 SSE 6 9 30.19 1022 10 16 0.00 0.00
10:52 am 10:52 Cloudy 83 28.3 70 21.1 65 65 SSE 5 7 30.19 1022 10 16 0.00 0.00
11:52 am 11:52 Mostly Cloudy 85 29.4 68 20 57 57 SSE 5 7 30.19 1022 10 16 0.00 0.00
12:52 pm 12:52 Cloudy 90 32.2 62 16.7 39 39 N 7 11 30.18 1022 10 16 0.00 0.00
1:52 pm 13:52 Cloudy 90 32.2 62 16.7 39 39 N 7 11 30.17 1022 10 16 0.00 0.00
2:52 pm 14:52 Mostly Cloudy 92 33.3 61 16.1 36 36 NNE 3 6 30.16 1022 10 16 0.00 0.00
3:52 pm 15:52 Mostly Cloudy 88 31.1 67 19.4 50 50 S 5 7 30.15 1021 10 16 0.00 0.00
4:52 pm 16:52 Mostly Cloudy 88 31.1 66 18.9 48 48 S 7 11 30.14 1021 10 16 0.00 0.00
5:15 pm 17:15 Cloudy 86 30 68 20 55 55 S 7 11 30.15 1021 10 16 0.00 0.00
5:52 pm 17:52 Cloudy 85 29.4 68 20 57 57 S 8 13 30.15 1021 10 16 0.00 0.00
5:59 pm 17:59 Cloudy with Thunderstorms 84 29 64 18 51 51 SW 16 26 30.15 1021 10 16 0.00 0.03
6:08 pm 18:08 Windy with Storms Likely 81 27 64 18 58 58 WSW 24 39 30.15 1021 10 16 0.00 0.00
6:15 pm 18:15 Cloudy with Thunderstorms 79 26 64 18 61 61 WSW 18 30 30.15 1021 10 16 0.00 0.03
6:32 pm 18:32 Windy with Storms Likely 79 26 64 18 61 61 WSW 20 31 30.15 1021 10 16 0.00 0.03
6:52 pm 18:52 Cloudy with Thunderstorms 78 25.6 67 19.4 69 69 W 14 22 30.15 1021 10 16 0.00 0.03
7:09 pm 19:09 Mostly Cloudy with Thunderstorms 81 27 66 19 62 62 ESE 9 15 30.15 1021 10 16 0.00 0.00
7:22 pm 19:22 Mostly Cloudy 82 28 64 18 55 55 VRB 5 7 30.15 1021 10 16 0.00 0.03
7:52 pm 19:52 Mostly Cloudy 80 26.7 65 18.3 60 60 SSE 5 7 30.16 1022 10 16 0.00 0.03
8:52 pm 20:52 Mostly Cloudy 77 25 67 19.4 71 71 SSW 5 7 30.18 1022 10 16 0.00 0.00
9:12 pm 21:12 Mostly Cloudy 77 25 66 19 69 69 S 6 9 30.18 1022 10 16 0.00 0.00
9:52 pm 21:52 Cloudy 78 25.6 68 20 71 71 Calm 30.19 1023 10 16 0.00 0.00
10:52 pm 22:52 Cloudy 77 25 69 20.6 77 77 SW 5 7 30.20 1023 10 16 0.00 0.00
11:52 pm 23:52 Partly Cloudy 78 25.6 69 20.6 74 74 Calm 30.20 1023 10 16 0.00 0.00

Powered by AerisWeather